Location: Slidell
(30.2789°N, 89.7378°W)
Time: 14:27:27
(UTC-05:00)

Daily predictions for brighter satellites

Satellite Brightness Start Highest point End
(mag) Time Altitude Azimuth Time Altitude Azimuth Time Altitude Azimuth
OAO 3 Copernicus 4.4 19:13:51 10° WSW 19:18:54 88° SSE 19:23:58 10° ENE
Thor Agena Rocket 3.6 19:17:10 10° NNE 19:22:21 62° ESE 19:27:27 10° S
Cosmos 1709 Rocket 4.0 19:16:24 10° S 19:22:40 70° E 19:29:01 10° N
Cosmos 1758 Rocket 4.4 19:21:08 10° NNE 19:25:07 31° E 19:29:05 10° SE
SJ-6B 4.2 19:23:02 10° ESE 19:26:00 20° ENE 19:28:57 10° NNE
Cosmos 1726 Rocket 3.7 19:22:07 10° SSE 19:26:20 48° E 19:30:32 10° NNE
SPOT 3 Rocket 3.7 19:23:10 10° S 19:28:19 82° WSW 19:33:29 10° NNW
Cosmos 1184 Rocket 2.8 19:29:38 10° N 19:33:02 89° WSW 19:36:24 10° S
Tiangong 2 1.0 19:30:01 10° NW 19:33:13 81° NNE 19:36:12 11° ESE
Resurs 01 Rocket 3.3 19:40:30 13° E 19:41:39 15° ENE 19:44:04 10° NE
Milstar 3 Cent rocket 2.9 19:37:12 10° SW 19:42:18 33° SSE 19:45:32 15° ESE
ALOS 2.2 19:39:45 10° SSE 19:44:24 86° ENE 19:49:05 10° N
GEOS 3 Rocket 4.4 19:41:45 10° NE 19:46:27 30° ESE 19:51:05 10° S
Cosmos 2184 Rocket 4.3 19:42:20 10° SSE 19:48:09 42° E 19:54:03 10° NNE
FALCON 9 R/B 1.8 19:46:42 10° W 19:49:19 50° N 19:53:49 14° ENE
Cosmos 1814 Rocket 4.2 19:46:01 10° SSW 19:51:11 75° WNW 19:56:21 10° NNE
FREGAT/IRIS 2.5 19:49:43 10° SSE 19:52:43 65° ENE 19:55:44 10° N
Cosmos 1898 Rocket 3.4 19:48:07 10° N 19:53:17 70° ENE 19:58:25 10° SSE
Cosmos 1943 Rocket 2.2 19:48:09 10° NNW 19:53:42 64° ENE 19:59:16 10° SSE
OAO 2 Rocket 3.8 19:51:02 10° WNW 19:56:16 59° SSW 20:00:13 17° SE
Cosmos 2084 3.8 19:52:29 10° SW 19:56:39 62° WNW 20:00:35 10° NNE
GPS 2-04 Rocket1 3.0 19:52:34 10° WNW 19:56:51 71° SSW 19:59:33 22° SE
H-2A R/B 2.6 19:54:40 10° SSE 19:58:18 58° ENE 20:01:58 10° N
Lacrosse 5 2.2 19:56:09 10° NW 20:01:10 66° SW 20:06:10 10° SSE
Meteor 2-5 Rocket 3.8 19:55:36 10° N 20:01:20 57° E 20:06:56 10° SSE
USA 81 4.0 19:57:15 10° N 20:02:31 69° E 20:07:45 10° S
Cosmos 2228 3.0 19:58:10 10° S 20:02:32 88° E 20:06:55 10° N
Meteor 1-22 Rocket 4.4 19:56:55 10° SSE 20:02:33 51° E 20:07:59 10° NNE
CSL-04 DEB 4.5 19:59:06 10° SSE 20:03:27 75° ENE 20:07:50 10° N
Cosmos 2058 Rocket 3.1 19:59:40 10° S 20:04:01 80° W 20:08:23 10° N
Cosmos 990 Rocket 4.0 20:00:57 10° N 20:06:00 55° ENE 20:10:01 16° SSE
Envisat 4.0 20:08:43 25° E 20:09:17 26° ENE 20:13:25 10° NNE
Cosmos 1766 3.4 20:05:46 10° SSE 20:09:34 48° E 20:13:21 10° NNE
Geosat 4.3 20:05:38 10° SSE 20:10:37 67° WSW 20:15:37 10° NNW
Cosmos 1953 Rocket 3.7 20:07:20 10° N 20:11:39 73° W 20:15:56 10° S
Cosmos 2150 Rocket 4.0 20:06:24 10° N 20:11:44 65° ENE 20:16:17 15° SSE
Cosmos 2327 Rocket 4.4 20:06:05 10° S 20:12:08 62° E 20:18:08 10° NNE
COSMOS 2406 3.1 20:09:43 10° S 20:15:20 65° ESE 20:21:00 10° NNE
FengYun 1-2 T 4.3 20:10:54 10° SSE 20:16:32 85° WSW 20:22:09 10° NNW
SWIFT 4.3 20:14:48 10° SW 20:17:40 18° S 20:18:52 16° SSE
Cosmos 1707 3.4 20:19:28 10° NNW 20:23:19 56° W 20:27:09 10° S
Cosmos 2369 Rocket 4.1 20:27:34 10° NW 20:32:21 29° WSW 20:37:05 10° SSW
Cosmos 1656 Rocket 3.7 20:28:43 10° N 20:34:16 59° ENE 20:35:30 48° ESE
Cosmos 2298 Rocket 4.5 20:30:32 10° NNW 20:35:48 62° WSW 20:40:42 12° S
Cosmos 1937 Rocket 4.1 20:34:05 10° NNW 20:39:16 57° WSW 20:43:49 13° S
Delta 2 Rocket 4.5 20:31:40 10° WSW 20:39:52 59° S 20:42:01 43° ESE
USA 229 DEB 4.1 20:39:58 10° NW 20:47:08 65° WSW 20:52:12 21° S
USA 229 4.1 20:40:04 10° NW 20:47:14 66° WSW 20:52:12 22° SSE
NOSS 3-1 (A) 4.3 20:44:14 10° NNW 20:51:55 53° ENE 20:53:33 47° E
Cosmos 1356 Rocket 4.0 20:47:44 10° NNW 20:51:58 59° W 20:52:44 49° SW
CZ-2D R/B 3.9 20:52:14 53° W 20:52:14 53° W 20:55:50 10° NNW
Centaur AC-112 4.5 20:49:13 10° SW 20:51:38 18° SSW 20:51:38 18° SSW
Cosmos 2154 Rocket 3.8 20:46:38 10° S 20:52:49 80° E 20:59:04 10° N
Yuri Rocket 3.8 20:50:06 10° WSW 20:53:08 40° SW 20:53:08 40° SW
In-Cosmos 22 4.1 20:48:43 10° N 20:54:27 87° E 20:55:45 56° S
Cosmos 2341 Rocket 4.3 21:01:46 49° NE 21:01:46 49° NE 21:06:26 10° NNE
Cosmos 540 Rocket 4.2 20:55:50 10° SSW 21:00:47 52° WNW 21:05:46 10° N
Resurs 1-3 4.1 21:01:49 58° WNW 21:01:49 58° WNW 21:05:36 10° NNW
NOSS 3-1 (C) 4.0 20:54:19 10° NNW 21:02:17 81° ENE 21:04:39 53° SE
Spot 2 Rocket 4.0 21:16:01 55° W 21:16:01 55° W 21:20:52 10° NNW
Resurs 01 Rocket 3.0 21:18:05 37° W 21:18:05 37° W 21:21:51 10° NNW
ATLAS CENTAUR R/B 3.5 21:24:42 10° NW 21:31:41 46° WNW 21:31:41 46° WNW
Nadezhda 3 Rocket 4.3 21:26:34 10° NNW 21:32:05 63° NW 21:32:05 63° NW
